Location: Hamilton
(37.7830°S, 175.2830°E)
Time: 11:16:56
(UTC+13:00)

ISS - Visible Passes

Search period start: 22 October 2019 00:00
Search period end: 01 November 2019 00:00
Orbit: 411 x 421 km, 51.6° (Epoch: 21 October)

Date Brightness Start Highest point End Pass type
(mag) Time Alt. Az. Time Alt. Az. Time Alt. Az.
22 Oct -2.9 20:09:30 10° WNW 20:12:49 54° SW 20:16:11 10° SE visible
22 Oct -0.6 21:48:34 10° SW 21:50:11 13° SSW 21:51:48 10° S visible
23 Oct -0.8 20:59:04 10° WSW 21:01:21 17° SSW 21:03:39 10° SSE visible
24 Oct -1.3 20:09:47 10° W 20:12:33 23° SSW 20:15:22 10° SSE visible
25 Oct -0.5 21:00:38 10° SSW 21:01:23 11° SSW 21:02:08 10° S visible
26 Oct -0.8 20:10:45 10° SW 20:12:29 13° SSW 20:14:13 10° SSE visible
27 Oct -0.5 22:38:15 10° S 22:38:46 11° S 22:38:46 11° S visible
29 Oct -0.8 22:36:53 10° SSW 22:38:00 15° S 22:38:00 15° S visible
30 Oct -1.2 21:48:37 10° SSW 21:50:35 14° SSE 21:51:10 14° SSE visible
31 Oct -1.0 21:00:30 10° S 21:01:38 11° SSE 21:02:46 10° SE visible
31 Oct -1.1 22:35:50 10° SW 22:37:13 21° SSW 22:37:13 21° SSW visible
